Temperature
21 21 21 21 21 21 23 24 24 24 24 24 24 24 22 21 20 19 18 18 18 18 18 18 18 17 17 17 17 17 17 17 17 17 17 17 17 17 17 17 17 17 17 17 17 17 17 18 18
21 21 21 22 21 22 23 23 23 24 24 24 24 23 22 20 19 18 18 18 18 17 17 17 17 17 17 17 17 17 16 16 16 16 16 16 16 16 16 16 16 16 17 17 17 17 17 17 18
21 21 22 22 23 23 23 23 24 24 24 24 23 22 21 20 19 18 18 18 18 17 17 17 17 17 17 17 16 16 16 16 16 16 16 16 16 16 16 16 16 16 16 16 17 17 17 17 17
21 22 23 23 23 24 24 24 24 24 24 24 23 21 19 19 18 18 18 18 18 17 17 17 17 17 16 16 16 16 16 16 16 16 16 16 16 16 16 16 16 16 16 16 16 16 17 17 17
22 22 23 24 24 24 24 24 24 24 24 24 22 21 19 18 18 18 18 18 18 17 17 17 17 17 16 16 16 16 16 16 16 16 16 16 16 16 16 15 16 16 16 16 16 16 16 17 17
23 24 23 23 24 24 25 24 24 24 24 23 22 21 18 18 18 18 18 18 17 17 17 17 17 17 17 16 16 16 16 16 16 16 16 16 16 16 16 16 16 16 16 16 16 16 16 17 17
23 23 24 24 23 24 24 24 24 24 23 23 22 21 19 18 18 18 18 18 18 17 17 17 17 17 17 16 16 16 16 16 16 16 16 16 16 16 16 16 16 16 16 16 16 16 16 17 17
23 24 24 24 23 23 24 24 24 23 23 23 22 21 19 18 18 18 18 18 18 18 18 17 17 17 17 17 16 16 16 16 16 16 16 16 16 16 16 16 16 16 16 16 16 16 16 17 17
24 24 23 24 23 23 24 24 24 23 23 22 22 20 19 19 19 18 18 18 18 18 18 18 17 17 17 17 17 16 16 16 16 16 16 16 16 16 16 16 16 16 16 16 16 16 16 16 17
25 23 24 25 25 24 24 24 24 23 22 22 20 20 19 19 19 19 19 19 19 19 18 18 18 18 17 17 17 16 16 16 16 16 16 16 16 16 16 16 16 16 16 16 16 16 16 16 17
26 24 25 25 25 25 24 24 24 23 22 21 20 20 19 19 19 19 19 19 19 19 19 19 18 18 18 17 17 17 17 17 17 16 16 16 16 16 16 16 16 16 16 16 16 16 16 16 17
25 25 25 25 24 24 24 24 24 23 22 21 20 20 19 20 20 20 20 19 19 19 19 19 18 18 18 17 17 17 17 17 17 17 17 16 16 16 16 16 16 16 16 16 16 16 17 17 17
25 25 25 24 24 24 24 23 23 22 22 21 20 20 20 20 20 20 19 19 19 19 18 18 18 18 18 18 17 17 17 17 17 17 17 17 16 16 16 16 16 16 16 16 16 16 17 17 17
25 25 25 24 24 24 24 23 23 22 21 21 20 20 20 20 20 20 20 19 19 19 18 18 18 18 18 18 17 17 17 17 17 17 17 17 17 17 16 16 16 16 16 16 16 16 16 16 16
25 24 24 24 24 24 24 23 23 22 21 21 21 20 20 20 20 20 20 20 19 19 18 18 18 18 18 17 17 17 17 17 17 17 17 17 17 17 17 16 16 16 16 16 16 16 16 16 16
25 24 23 23 24 24 23 21 23 22 22 21 21 21 20 20 20 20 20 20 19 19 18 18 18 18 17 17 17 17 17 17 17 17 17 17 17 17 16 16 16 16 16 16 16 16 16 16 16
24 23 23 23 24 24 23 22 22 22 22 22 21 21 21 20 21 20 20 20 19 19 19 18 18 18 17 17 17 17 17 17 16 16 16 16 16 16 16 16 16 16 16 16 16 16 16 16 16
23 24 24 23 24 24 23 22 22 22 22 22 22 21 21 21 21 20 20 20 19 19 19 18 18 18 17 17 17 17 16 16 16 16 16 16 16 16 16 16 16 16 16 16 16 16 16 16 16
25 25 24 24 25 24 23 23 23 23 23 22 22 22 21 21 21 20 20 19 19 19 19 18 18 18 17 17 17 17 16 16 16 16 16 16 16 16 16 16 16 16 16 16 16 16 16 16 16
25 24 24 24 25 24 23 23 23 23 23 23 22 22 22 21 21 20 20 19 19 19 19 19 18 18 17 17 17 17 16 16 16 16 16 16 16 16 16 16 16 16 16 16 16 16 16 16 16
25 24 24 24 24 24 23 23 23 23 23 23 23 22 22 21 21 20 20 19 19 19 19 19 18 18 17 17 17 17 16 16 16 16 16 16 16 16 16 16 16 16 16 16 16 16 16 16 16
24 25 24 24 23 22 23 21 22 23 23 23 23 22 22 22 21 20 20 19 19 19 19 19 18 18 17 17 17 17 17 16 16 16 16 15 15 16 16 16 16 16 16 16 16 16 16 16 16
25 25 25 24 23 23 23 23 23 23 22 23 23 23 22 22 21 20 20 20 19 19 19 19 18 18 17 17 17 17 17 16 16 16 16 16 16 16 16 16 16 16 16 16 16 16 16 16 16
25 24 24 24 23 22 23 23 22 23 23 23 23 23 22 22 21 21 20 20 19 19 19 18 18 18 17 17 17 17 17 16 16 16 16 16 16 16 16 16 16 16 16 16 16 16 16 16 16
24 23 22 21 21 22 24 24 23 24 24 24 24 23 23 22 21 21 20 20 19 19 18 18 18 17 17 17 17 17 17 17 16 16 16 16 16 16 16 16 16 16 16 15 15 16 16 16 16
24 23 22 21 22 23 24 24 24 25 25 24 24 23 23 22 21 21 20 20 19 19 18 18 18 17 17 17 17 17 17 17 17 16 16 16 16 16 16 16 16 16 16 15 16 16 15 15 15
23 23 24 23 23 23 24 24 25 25 25 25 24 23 23 22 21 20 20 19 19 19 18 18 18 17 17 17 17 17 17 17 17 16 16 16 16 16 16 16 16 16 16 15 16 15 15 15 15
24 24 23 22 21 22 23 24 23 24 24 24 24 23 22 22 21 21 20 20 19 19 18 18 18 18 17 17 17 17 17 17 17 16 16 16 16 16 16 16 16 16 16 15 15 15 15 15 15
23 23 23 23 23 22 22 23 25 25 24 24 24 23 23 22 21 21 20 20 19 19 19 18 18 18 18 18 17 17 17 17 17 17 16 16 16 16 16 16 16 16 15 15 15 15 15 15 15
24 24 24 22 22 23 22 22 25 25 25 25 24 24 23 22 22 21 20 20 19 19 19 18 18 18 18 18 18 17 17 17 17 17 16 16 16 16 16 16 16 16 16 15 15 15 15 15 15
Wind_Speed
11 10 6 2 2 2 2 5 7 6 7 9 10 10 12 12 9 8 3 5 10 12 14 14 14 14 13 13 13 12 11 11 11 11 11 11 11 10 10 10 10 10 10 10 9 9 9 9 8
10 6 4 3 2 0 3 6 9 9 7 7 9 12 12 10 10 7 4 6 10 13 14 14 14 14 13 13 13 12 12 12 12 11 11 10 10 9 9 9 9 9 9 9 8 8 8 8 8
10 6 3 3 2 3 4 7 9 8 6 6 8 10 8 6 7 5 4 8 12 14 15 14 14 14 13 13 13 12 12 12 11 10 10 9 9 9 8 8 8 8 8 7 7 7 8 7 7
5 3 4 2 4 8 7 6 7 7 6 8 10 9 8 8 6 7 7 10 13 14 16 14 15 14 13 13 13 12 12 11 11 10 9 9 8 8 7 7 7 7 7 6 6 6 7 6 6
4 3 3 0 6 8 8 6 5 7 7 10 12 10 9 8 9 8 8 11 12 13 15 14 14 14 14 13 13 12 11 11 10 10 9 8 8 7 7 7 7 6 6 6 5 5 6 5 4
3 3 3 2 6 7 7 6 7 9 9 10 11 11 7 7 8 8 9 10 11 12 14 14 14 14 14 13 13 12 11 10 9 9 8 8 7 7 7 6 6 6 6 6 6 5 5 4 3
4 4 3 3 6 5 6 6 7 8 8 8 8 9 8 9 7 8 9 9 9 10 11 13 14 14 14 13 12 11 9 8 7 6 6 6 6 6 6 7 6 6 6 6 6 5 4 3 2
4 4 3 2 5 5 5 5 6 7 7 6 7 8 9 9 8 8 8 9 8 8 8 9 12 13 13 12 10 9 8 6 5 5 4 4 5 6 6 6 6 6 5 5 5 4 3 2 2
4 3 2 3 4 6 6 5 6 7 8 10 12 13 13 12 10 8 7 7 7 8 7 7 7 9 11 11 10 9 8 6 6 6 6 6 5 7 7 8 7 6 5 5 4 3 2 2 2
2 1 2 3 5 6 6 6 5 6 9 11 14 15 13 11 9 8 7 7 7 6 7 7 6 6 7 7 8 6 6 6 5 5 3 3 6 7 9 9 7 6 5 4 4 4 3 4 4
1 2 3 5 7 7 5 4 5 7 7 9 13 13 11 9 8 7 7 7 6 6 5 6 6 6 6 5 5 4 4 3 4 5 5 5 5 6 7 7 7 5 5 4 4 5 6 5 4
1 3 3 5 6 5 4 4 5 8 8 10 12 12 10 8 8 7 7 8 6 6 5 5 4 5 7 6 3 3 3 3 4 5 6 5 2 2 3 3 4 4 3 2 3 3 1 1 4
3 3 4 5 4 5 5 6 7 9 10 11 12 11 9 8 8 7 7 7 7 5 5 5 5 6 5 3 2 5 3 3 5 4 5 4 2 2 1 3 3 3 3 1 0 2 4 4 6
3 4 5 5 4 4 5 6 6 9 10 11 11 9 9 8 7 7 7 7 7 6 6 4 4 4 4 3 3 3 4 5 5 3 4 5 4 2 2 2 3 3 3 3 3 5 4 4 5
3 4 5 4 4 4 4 4 7 10 11 11 10 9 8 8 6 6 6 6 8 7 7 4 4 5 6 5 4 4 5 6 4 4 6 6 5 5 3 2 2 3 4 5 5 5 4 4 5
6 5 4 5 5 4 3 3 8 10 11 10 10 9 8 7 7 6 7 6 7 8 8 5 5 7 6 4 4 4 6 5 5 7 8 7 8 9 5 3 2 5 6 4 3 4 5 5 5
6 6 6 6 6 5 4 4 7 8 10 10 9 10 10 8 7 7 7 6 6 7 8 6 5 6 5 4 3 5 5 5 6 8 9 9 9 8 6 2 3 6 4 3 3 4 4 4 4
5 6 5 6 6 6 5 5 9 10 9 9 9 9 9 9 7 7 7 7 6 5 6 7 5 6 5 3 4 4 4 4 6 7 7 8 7 7 4 2 4 6 4 4 4 4 3 3 3
5 4 3 5 5 5 5 6 9 11 9 8 9 10 9 9 9 9 8 7 6 4 6 7 6 6 4 3 3 3 3 4 4 4 5 5 7 7 5 4 4 4 3 4 4 3 3 3 4
5 4 2 4 5 4 5 7 8 11 11 9 9 9 10 10 10 10 9 7 7 5 5 7 6 6 6 3 3 3 3 4 3 3 5 7 8 7 5 4 3 4 4 5 5 4 2 2 3
6 5 3 2 3 4 5 5 8 10 10 8 9 10 11 11 13 12 10 8 7 5 5 6 6 7 6 5 4 4 3 3 3 3 3 5 8 9 8 6 3 4 4 4 3 3 3 2 2
5 3 3 4 4 4 6 3 7 10 10 10 9 10 11 11 12 12 11 9 8 6 4 6 6 7 7 6 3 4 3 3 3 3 2 4 6 6 7 6 5 5 4 3 3 4 2 3 2
4 2 4 6 6 6 7 5 5 9 11 12 11 10 12 11 12 12 11 10 9 7 5 5 7 7 7 6 4 3 3 3 3 3 4 5 4 5 6 6 5 5 4 4 5 5 4 3 2
2 3 6 6 5 7 8 6 4 7 11 12 12 12 12 13 13 12 11 10 8 7 6 6 7 7 6 5 5 4 4 4 4 4 4 4 3 3 4 5 5 4 4 5 4 4 5 4 4
6 5 3 4 5 5 6 5 4 7 7 8 9 11 11 12 13 13 12 11 9 9 7 7 7 6 5 4 5 5 5 4 4 4 3 3 3 3 3 4 3 3 4 5 4 3 4 4 4
8 8 4 3 3 2 5 4 4 7 7 8 8 8 11 11 12 13 13 11 10 10 9 8 8 7 6 4 4 5 5 3 3 3 4 3 3 4 4 4 5 5 5 5 4 3 4 4 4
7 8 7 6 8 4 3 4 6 8 8 7 8 8 10 12 12 13 13 12 11 11 10 9 9 7 6 5 4 4 5 5 3 3 4 4 3 4 5 5 5 5 5 5 5 4 5 6 6
8 7 5 4 3 4 3 3 5 9 9 8 7 9 10 11 13 14 13 12 11 11 10 9 9 8 7 5 4 4 5 5 4 4 4 4 4 4 5 5 5 5 4 5 5 4 5 6 5
9 9 7 5 5 3 2 1 3 7 8 8 8 8 9 10 12 12 12 12 11 11 11 10 9 8 7 6 5 5 5 5 4 4 3 4 4 4 5 4 5 5 5 5 4 4 4 5 4
8 9 8 5 4 5 3 0 4 5 6 6 7 8 9 10 9 11 12 12 11 12 12 11 10 8 7 7 7 7 6 5 5 5 3 3 4 4 5 4 4 5 6 5 5 4 5 4 5
Wind_Direction
285 261 249 245 265 246 47 58 73 66 59 53 52 65 69 53 57 88 113 90 96 98 96 90 88 88 87 86 85 84 84 86 90 89 88 88 87 86 86 85 85 83 81 79 75 73 75 73 73
288 289 275 236 261 328 63 69 74 64 77 75 63 67 72 65 69 89 92 88 92 93 89 89 89 88 87 87 85 85 86 86 86 87 87 87 87 86 85 86 87 85 85 83 81 77 75 74 75
272 273 265 254 301 55 86 84 89 80 67 73 73 61 57 61 67 86 109 101 92 91 91 91 91 89 89 89 87 86 86 87 86 86 87 87 85 86 86 88 91 90 88 86 83 82 79 75 72
278 267 245 251 52 63 82 88 99 95 73 73 83 72 68 56 81 108 115 102 96 98 97 97 95 92 91 89 89 88 86 85 85 84 83 84 84 84 85 86 90 92 88 83 81 83 80 76 69
250 256 264 48 75 73 76 82 82 84 77 77 83 89 82 75 93 101 100 99 98 101 103 103 103 98 93 90 90 88 86 85 84 81 80 82 83 83 81 79 83 85 86 84 84 85 85 80 69
272 259 277 88 94 83 72 68 76 78 82 85 94 96 93 98 92 91 92 93 98 107 111 113 112 108 101 95 90 87 86 85 84 83 84 86 87 87 85 83 84 86 86 83 84 92 95 92 78
287 292 289 104 103 87 69 53 65 81 80 75 92 100 112 105 103 103 101 101 104 112 119 126 129 119 109 102 98 94 93 94 94 95 100 102 101 99 94 88 86 92 94 93 90 94 98 110 114
287 296 314 82 104 92 79 75 80 84 85 85 92 110 123 125 126 117 114 114 117 120 121 127 133 131 128 123 120 119 120 122 126 135 150 148 137 127 113 106 100 101 104 106 105 107 113 125 147
270 280 357 53 91 107 111 99 92 90 88 76 77 99 118 132 133 129 125 120 122 122 125 123 124 129 132 133 135 150 151 159 165 184 201 199 174 155 128 109 112 116 123 129 133 138 147 173 199
254 333 31 64 97 117 118 111 112 105 97 96 97 105 123 139 140 138 134 128 126 124 121 120 123 122 116 109 132 155 140 158 166 144 163 149 103 104 116 125 130 134 141 156 183 192 216 232 221
325 54 59 72 91 111 118 109 106 107 110 120 124 128 134 137 134 125 121 114 108 102 99 111 112 113 111 100 98 94 103 119 96 95 87 82 104 128 136 148 162 168 174 191 190 202 218 213 190
64 62 76 90 97 113 118 109 97 96 108 119 123 130 138 142 133 123 111 110 108 95 85 88 96 95 90 86 101 100 79 77 66 65 81 71 67 79 104 123 139 149 138 150 173 195 176 111 111
126 111 102 108 112 113 101 102 105 106 113 120 129 136 147 142 130 121 115 113 108 105 87 59 61 77 88 89 78 90 66 73 84 53 74 74 82 81 97 102 93 84 85 96 84 69 66 55 55
124 135 131 124 110 112 122 126 125 123 130 131 137 147 151 137 131 135 137 135 126 121 104 90 88 97 111 106 83 86 99 87 80 65 80 86 89 101 87 88 85 80 66 45 67 83 74 68 64
158 155 142 142 142 141 137 130 136 139 145 145 151 152 149 142 147 148 134 132 131 124 114 108 97 77 69 60 57 73 71 70 61 40 62 75 74 69 72 67 84 91 77 59 58 73 75 81 76
193 185 179 179 174 165 190 151 142 149 159 159 162 157 156 156 166 148 132 127 125 123 118 107 94 85 77 67 51 60 61 55 56 38 28 49 68 72 57 51 62 75 72 69 60 52 62 65 67
211 216 185 173 187 179 206 159 153 166 174 168 171 167 165 172 165 136 129 125 122 125 130 130 105 101 96 102 82 63 67 52 58 50 31 30 41 66 70 47 58 76 70 60 72 67 74 79 80
227 228 184 173 179 188 200 174 165 179 188 180 177 170 171 168 157 140 134 127 115 115 122 112 103 104 101 91 88 69 59 51 56 57 44 29 35 49 58 60 69 72 69 60 67 71 75 84 85
278 263 201 160 164 195 198 191 181 179 190 188 180 173 174 162 151 141 134 131 127 124 124 127 136 118 108 86 90 87 82 74 61 60 46 37 45 43 49 52 60 66 84 88 86 76 79 85 97
253 247 225 147 163 205 214 208 189 181 194 196 187 181 173 158 149 142 148 152 151 150 155 142 128 118 108 89 106 108 101 100 93 63 43 43 45 35 50 66 70 69 71 69 74 70 61 60 92
234 234 227 185 187 225 239 225 195 186 192 195 191 186 175 167 157 158 161 155 151 165 169 136 126 122 117 98 78 82 76 83 87 78 52 44 46 35 38 44 61 79 84 90 96 90 76 54 46
238 237 231 223 229 237 221 232 198 186 188 197 196 188 173 170 160 161 159 156 163 166 152 135 132 124 112 108 101 116 113 103 104 108 114 82 65 54 43 44 42 67 73 79 83 84 81 69 42
254 272 247 249 250 260 241 241 206 176 193 197 194 188 173 172 164 162 159 162 163 155 152 133 120 115 111 115 113 104 101 108 105 105 104 91 66 62 52 56 55 62 65 65 62 58 47 58 51
221 238 246 245 251 251 233 230 192 183 196 192 186 186 178 173 166 159 155 156 151 145 137 119 116 114 119 137 143 129 127 126 116 113 112 112 96 68 61 66 63 69 70 70 73 74 62 54 46
214 221 231 218 219 235 204 215 183 172 178 180 182 183 174 169 164 159 158 160 156 149 144 133 129 131 145 172 161 151 151 140 132 130 120 117 113 98 84 73 69 69 77 78 76 82 86 72 57
219 229 236 255 239 218 189 209 143 146 153 168 174 173 171 168 163 161 162 162 159 155 154 152 153 154 164 185 175 149 141 133 125 130 124 115 112 113 105 83 76 70 75 78 64 65 71 76 68
224 240 258 281 292 281 202 157 133 136 146 160 164 165 169 167 165 163 165 165 164 161 162 164 159 160 170 183 170 150 146 130 133 125 113 110 114 117 106 99 90 71 60 60 61 59 62 62 54
247 253 253 255 279 272 244 201 166 152 153 157 159 160 166 166 169 167 168 168 166 164 164 164 162 166 170 174 164 142 124 122 128 113 113 121 113 100 111 121 118 108 90 71 63 63 69 79 69
221 234 241 249 248 269 264 85 83 138 145 154 160 164 167 169 172 169 168 170 167 163 164 168 170 169 167 168 160 144 135 136 123 112 118 123 126 127 121 118 116 116 110 94 76 76 71 79 82
237 234 231 238 256 263 276 159 121 128 137 152 160 162 163 166 166 165 167 169 171 169 168 173 174 168 165 167 165 157 147 147 143 145 152 149 139 128 124 122 115 112 109 105 96 86 77 71 73
Height
1499 1500 1501 1502 1503 1505 1504 1499 1495 1497 1498 1500 1500 1502 1507 1512 1517 1528 1528 1526 1526 1526 1525 1526 1526 1526 1527 1527 1528 1529 1529 1530 1531 1532 1532 1533 1534 1535 1536 1536 1537 1538 1539 1540 1540 1541 1542 1543 1543
1499 1501 1502 1502 1504 1510 1508 1500 1500 1500 1501 1502 1503 1506 1510 1516 1521 1525 1526 1527 1528 1527 1526 1526 1527 1527 1528 1528 1529 1530 1531 1531 1532 1532 1533 1533 1534 1535 1536 1537 1537 1538 1539 1540 1541 1542 1542 1543 1544
1500 1501 1502 1500 1502 1506 1507 1501 1501 1502 1502 1503 1506 1510 1515 1520 1524 1525 1527 1528 1528 1528 1528 1528 1528 1529 1529 1530 1530 1531 1532 1532 1532 1533 1533 1534 1534 1535 1536 1537 1538 1538 1539 1540 1541 1542 1543 1544 1545
1502 1503 1501 1501 1503 1500 1500 1501 1501 1503 1504 1505 1508 1515 1521 1524 1525 1527 1529 1529 1529 1529 1529 1529 1530 1530 1531 1531 1532 1532 1533 1533 1533 1534 1534 1534 1535 1536 1536 1537 1538 1539 1539 1540 1541 1542 1543 1544 1545
1503 1502 1501 1502 1502 1500 1500 1502 1502 1503 1505 1508 1511 1519 1524 1527 1527 1529 1530 1531 1531 1531 1531 1531 1532 1532 1533 1533 1534 1534 1534 1535 1535 1535 1535 1536 1536 1536 1537 1538 1538 1539 1540 1540 1541 1542 1543 1544 1546
1503 1499 1505 1507 1504 1501 1502 1503 1504 1506 1508 1511 1514 1520 1527 1529 1530 1531 1531 1532 1533 1533 1533 1533 1533 1534 1535 1535 1536 1536 1536 1537 1537 1537 1537 1537 1537 1538 1538 1538 1539 1539 1540 1540 1541 1542 1544 1545 1546
1503 1501 1503 1503 1506 1506 1505 1506 1506 1508 1511 1513 1516 1521 1528 1530 1531 1532 1533 1534 1534 1535 1535 1535 1535 1536 1537 1537 1538 1538 1538 1538 1539 1539 1538 1538 1538 1539 1539 1539 1540 1540 1540 1541 1542 1543 1544 1546 1547
1502 1501 1501 1502 1506 1508 1507 1508 1509 1511 1513 1516 1517 1521 1528 1531 1532 1533 1534 1535 1536 1537 1537 1538 1538 1538 1538 1539 1540 1540 1540 1540 1541 1541 1540 1540 1540 1540 1541 1541 1541 1541 1541 1542 1543 1544 1545 1546 1547
1502 1504 1506 1504 1506 1508 1508 1509 1512 1513 1515 1517 1519 1522 1527 1531 1533 1534 1536 1537 1538 1539 1540 1540 1541 1541 1541 1541 1542 1542 1542 1542 1542 1542 1543 1542 1542 1542 1542 1543 1543 1542 1543 1544 1544 1545 1546 1547 1549
1501 1506 1505 1501 1502 1505 1508 1510 1512 1514 1518 1521 1524 1527 1529 1531 1533 1535 1536 1538 1539 1540 1541 1542 1543 1543 1544 1544 1544 1544 1544 1544 1544 1545 1545 1545 1545 1545 1545 1545 1545 1545 1545 1545 1546 1547 1547 1548 1550
1499 1503 1502 1502 1503 1506 1509 1511 1512 1515 1519 1522 1525 1528 1531 1532 1534 1536 1537 1539 1540 1542 1543 1544 1544 1545 1545 1545 1546 1546 1546 1546 1547 1546 1546 1547 1547 1546 1546 1546 1546 1547 1547 1547 1548 1549 1549 1550 1551
1501 1502 1503 1504 1506 1508 1510 1512 1514 1517 1521 1523 1526 1529 1531 1533 1535 1537 1538 1540 1542 1543 1544 1545 1546 1546 1546 1546 1547 1547 1548 1548 1548 1548 1548 1548 1548 1548 1548 1548 1548 1549 1549 1549 1550 1550 1551 1552 1553
1502 1504 1505 1507 1508 1510 1511 1514 1517 1519 1522 1525 1528 1530 1532 1534 1536 1538 1540 1541 1543 1544 1545 1545 1546 1546 1547 1547 1548 1549 1549 1549 1549 1549 1549 1549 1549 1549 1549 1550 1550 1550 1551 1551 1552 1552 1552 1553 1554
1503 1504 1506 1508 1509 1511 1513 1515 1518 1521 1524 1526 1529 1531 1533 1535 1537 1539 1540 1541 1543 1544 1545 1546 1547 1547 1548 1549 1549 1550 1550 1550 1550 1550 1551 1550 1550 1551 1551 1551 1551 1552 1552 1552 1553 1553 1554 1554 1555
1504 1506 1508 1509 1510 1512 1513 1517 1518 1522 1524 1527 1529 1532 1534 1536 1537 1539 1540 1542 1543 1545 1546 1547 1548 1549 1549 1550 1551 1551 1552 1552 1552 1552 1552 1552 1552 1552 1552 1552 1553 1553 1553 1554 1555 1555 1555 1556 1557
1504 1508 1514 1510 1510 1512 1516 1524 1519 1522 1524 1526 1529 1531 1534 1535 1537 1539 1541 1542 1544 1545 1547 1548 1549 1550 1551 1551 1552 1552 1552 1553 1553 1552 1553 1553 1553 1553 1553 1554 1554 1554 1555 1556 1556 1557 1557 1558 1559
1506 1511 1512 1511 1508 1510 1514 1520 1519 1521 1523 1525 1528 1530 1533 1535 1537 1539 1541 1543 1545 1546 1547 1549 1550 1551 1552 1553 1553 1554 1554 1554 1554 1554 1553 1554 1554 1555 1555 1555 1555 1556 1556 1557 1558 1558 1559 1560 1561
1509 1506 1508 1510 1507 1509 1513 1516 1517 1520 1521 1523 1526 1528 1531 1534 1536 1538 1541 1543 1545 1547 1548 1549 1550 1552 1553 1554 1554 1555 1555 1555 1555 1555 1555 1555 1555 1556 1556 1557 1557 1557 1557 1558 1559 1560 1561 1562 1562
1500 1502 1505 1505 1504 1508 1512 1514 1514 1517 1519 1521 1523 1526 1529 1532 1535 1538 1541 1543 1545 1547 1549 1550 1551 1553 1554 1554 1555 1556 1556 1556 1556 1556 1556 1557 1557 1557 1557 1558 1558 1558 1559 1559 1560 1561 1562 1563 1564
1500 1504 1505 1504 1502 1506 1510 1512 1510 1513 1516 1518 1520 1524 1527 1530 1534 1537 1540 1543 1545 1547 1549 1550 1552 1553 1554 1555 1556 1557 1557 1557 1557 1558 1558 1558 1558 1558 1559 1559 1559 1559 1560 1560 1561 1562 1563 1564 1565
1501 1503 1505 1507 1504 1505 1510 1514 1511 1510 1513 1516 1518 1521 1524 1528 1532 1536 1539 1542 1545 1547 1549 1550 1552 1553 1555 1556 1557 1557 1558 1558 1559 1559 1559 1559 1559 1559 1559 1560 1560 1561 1561 1561 1562 1563 1564 1565 1566
1504 1498 1501 1504 1510 1514 1510 1523 1512 1508 1511 1513 1516 1518 1521 1525 1529 1533 1537 1541 1544 1546 1549 1551 1552 1553 1555 1556 1557 1558 1558 1559 1560 1560 1560 1560 1560 1560 1561 1561 1561 1562 1562 1563 1563 1564 1565 1566 1566
1499 1497 1500 1503 1508 1512 1508 1516 1512 1505 1510 1510 1512 1515 1519 1523 1527 1531 1535 1539 1543 1546 1548 1550 1552 1553 1555 1556 1557 1558 1559 1560 1561 1561 1561 1561 1562 1562 1562 1562 1562 1563 1563 1563 1564 1565 1565 1566 1567
1497 1501 1502 1502 1508 1520 1507 1513 1514 1505 1505 1505 1508 1512 1516 1520 1525 1529 1533 1537 1541 1545 1548 1550 1551 1553 1555 1556 1557 1559 1559 1560 1561 1562 1562 1563 1563 1563 1563 1563 1564 1564 1564 1564 1565 1565 1566 1567 1567
1499 1509 1520 1522 1524 1516 1497 1504 1505 1496 1495 1500 1504 1508 1512 1517 1522 1526 1531 1535 1539 1543 1546 1548 1551 1552 1554 1556 1557 1559 1560 1561 1562 1562 1563 1564 1564 1564 1565 1565 1565 1565 1566 1566 1566 1567 1567 1568 1568
1499 1504 1519 1527 1522 1510 1499 1503 1495 1489 1493 1498 1502 1506 1510 1515 1519 1524 1528 1533 1537 1540 1544 1547 1549 1552 1554 1555 1557 1559 1560 1561 1562 1563 1564 1564 1565 1565 1566 1566 1566 1567 1567 1567 1568 1568 1568 1569 1569
1500 1500 1497 1507 1507 1510 1503 1496 1491 1488 1492 1497 1501 1505 1508 1512 1517 1522 1527 1531 1535 1539 1542 1545 1548 1551 1553 1555 1557 1558 1560 1561 1562 1564 1564 1565 1566 1567 1567 1567 1567 1568 1568 1568 1569 1569 1569 1570 1570
1494 1496 1501 1508 1519 1521 1509 1501 1500 1493 1494 1496 1499 1503 1507 1511 1515 1520 1524 1529 1533 1537 1540 1544 1547 1550 1552 1554 1556 1558 1559 1561 1562 1564 1565 1565 1566 1567 1568 1568 1568 1569 1569 1570 1570 1570 1571 1571 1572
1497 1498 1498 1501 1504 1517 1519 1509 1487 1489 1491 1494 1498 1502 1505 1509 1513 1518 1522 1527 1531 1535 1538 1542 1545 1548 1551 1553 1555 1557 1559 1560 1562 1563 1565 1566 1567 1568 1568 1569 1570 1570 1570 1571 1571 1572 1572 1572 1573
1490 1492 1496 1509 1508 1504 1511 1509 1485 1487 1490 1493 1496 1500 1504 1507 1511 1515 1520 1524 1529 1532 1536 1540 1543 1546 1549 1552 1554 1556 1558 1560 1561 1563 1564 1566 1567 1568 1569 1570 1570 1571 1571 1572 1572 1573 1573 1574 1574